Time,TemperatureF,DewpointF,PressureIn,WindDirection,WindDirectionDegrees,WindSpeedMPH,WindSpeedGustMPH,Humidity,HourlyPrecipIn,Conditions,Clouds,dailyrainin,SoftwareType,DateUTC
2013-02-09 00:01:00,32.0,28.0,30.27,East,100,5.0,-999.0,86,-99.99,,,-99.99,,2013-02-09 06:01:00,
2013-02-09 00:11:00,32.0,28.0,30.27,East,100,5.0,-999.0,86,-99.99,,,-99.99,,2013-02-09 06:11:00,
2013-02-09 00:21:00,32.0,28.0,30.27,East,100,5.0,-999.0,86,-99.99,,,-99.99,,2013-02-09 06:21:00,
2013-02-09 00:31:00,32.0,28.0,30.27,East,100,5.0,-999.0,86,-99.99,,,-99.99,,2013-02-09 06:31:00,
2013-02-09 00:52:00,32.0,28.0,30.27,East,100,5.0,-999.0,86,-99.99,,,-99.99,,2013-02-09 06:52:00,
2013-02-09 01:01:00,32.0,28.0,30.27,East,100,5.0,-999.0,86,-99.99,,,-99.99,,2013-02-09 07:01:00,
2013-02-09 01:11:00,32.0,28.0,30.27,East,100,5.0,-999.0,86,-99.99,,,-99.99,,2013-02-09 07:11:00,
2013-02-09 01:21:00,32.0,28.0,30.27,East,100,5.0,-999.0,86,-99.99,,,-99.99,,2013-02-09 07:21:00,
2013-02-09 01:31:00,32.0,28.0,30.27,East,100,5.0,-999.0,86,-99.99,,,-99.99,,2013-02-09 07:31:00,
2013-02-09 01:52:00,32.0,28.0,30.27,ESE,120,8.0,-999.0,86,-99.99,,,-99.99,,2013-02-09 07:52:00,
2013-02-09 02:01:00,32.0,28.0,30.27,ESE,120,8.0,-999.0,86,-99.99,,,-99.99,,2013-02-09 08:01:00,
2013-02-09 02:11:00,32.0,28.0,30.27,ESE,120,8.0,-999.0,86,-99.99,,,-99.99,,2013-02-09 08:11:00,
2013-02-09 02:21:00,32.0,28.0,30.27,ESE,120,8.0,-999.0,86,-99.99,,,-99.99,,2013-02-09 08:21:00,
2013-02-09 02:31:00,32.0,28.0,30.27,ESE,120,8.0,-999.0,86,-99.99,,,-99.99,,2013-02-09 08:31:00,
2013-02-09 02:52:00,32.0,28.0,30.26,SE,130,12.0,-999.0,86,-99.99,,,-99.99,,2013-02-09 08:52:00,
2013-02-09 03:03:00,32.0,28.0,30.26,SE,130,12.0,-999.0,86,-99.99,,,-99.99,,2013-02-09 09:03:00,
2013-02-09 03:11:00,32.0,28.0,30.26,SE,130,12.0,-999.0,86,-99.99,,,-99.99,,2013-02-09 09:11:00,
2013-02-09 03:21:00,32.0,28.0,30.26,SE,130,12.0,-999.0,86,-99.99,,,-99.99,,2013-02-09 09:21:00,
2013-02-09 03:31:00,32.0,28.0,30.26,SE,130,12.0,-999.0,86,-99.99,,,-99.99,,2013-02-09 09:31:00,
2013-02-09 05:52:00,34.0,30.0,30.23,SE,140,14.0,-999.0,86,-99.99,,,-99.99,,2013-02-09 11:52:00,
2013-02-09 06:02:00,34.0,30.0,30.23,SE,140,14.0,-999.0,86,-99.99,,,-99.99,,2013-02-09 12:02:00,
2013-02-09 06:11:00,34.0,30.0,30.23,SE,140,14.0,-999.0,86,-99.99,,,-99.99,,2013-02-09 12:11:00,
2013-02-09 06:21:00,34.0,30.0,30.23,SE,140,14.0,-999.0,86,-99.99,,,-99.99,,2013-02-09 12:21:00,
2013-02-09 06:32:00,34.0,30.0,30.23,SE,140,14.0,-999.0,86,-99.99,,,-99.99,,2013-02-09 12:32:00,
2013-02-09 07:52:00,34.0,32.0,30.21,SE,140,13.0,18.0,93,-99.99,,,-99.99,,2013-02-09 13:52:00,
2013-02-09 08:01:00,34.0,32.0,30.21,SE,140,13.0,18.0,93,-99.99,,,-99.99,,2013-02-09 14:01:00,
2013-02-09 08:11:00,34.0,32.0,30.21,SE,140,13.0,18.0,93,-99.99,,,-99.99,,2013-02-09 14:11:00,
2013-02-09 08:21:00,34.0,32.0,30.21,SE,140,13.0,18.0,93,-99.99,,,-99.99,,2013-02-09 14:21:00,
2013-02-09 08:31:00,34.0,32.0,30.21,SE,140,13.0,18.0,93,-99.99,,,-99.99,,2013-02-09 14:31:00,
2013-02-09 12:23:00,45.0,30.0,30.14,SE,130,10.0,17.0,56,-99.99,,,-99.99,,2013-02-09 18:23:00,
2013-02-09 12:32:00,45.0,30.0,30.14,SE,130,10.0,17.0,56,-99.99,,,-99.99,,2013-02-09 18:32:00,
2013-02-09 12:42:00,45.0,30.0,30.14,SE,130,10.0,17.0,56,-99.99,,,-99.99,,2013-02-09 18:42:00,
2013-02-09 12:52:00,46.0,30.0,30.11,SE,130,14.0,20.0,52,-99.99,,,-99.99,,2013-02-09 18:52:00,
2013-02-09 13:01:00,46.0,30.0,30.11,SE,130,14.0,20.0,52,-99.99,,,-99.99,,2013-02-09 19:01:00,
2013-02-09 13:11:00,46.0,30.0,30.11,SE,130,14.0,20.0,52,-99.99,,,-99.99,,2013-02-09 19:11:00,
2013-02-09 13:22:00,46.0,30.0,30.11,SE,130,14.0,20.0,52,-99.99,,,-99.99,,2013-02-09 19:22:00,
2013-02-09 13:32:00,46.0,30.0,30.11,SE,130,14.0,20.0,52,-99.99,,,-99.99,,2013-02-09 19:32:00,
2013-02-09 13:52:00,52.0,28.0,30.05,ESE,120,9.0,-999.0,40,-99.99,,,-99.99,,2013-02-09 19:52:00,
2013-02-09 14:31:00,52.0,28.0,30.05,ESE,120,9.0,-999.0,40,-99.99,,,-99.99,,2013-02-09 20:31:00,
2013-02-09 18:52:00,43.0,34.0,29.96,SE,140,10.0,-999.0,70,0.05,,,-99.99,,2013-02-10 00:52:00,
2013-02-09 19:01:00,43.0,34.0,29.96,SE,140,10.0,-999.0,70,0.05,,,-99.99,,2013-02-10 01:01:00,
2013-02-09 19:12:00,43.0,34.0,29.96,SE,140,10.0,-999.0,70,0.05,,,-99.99,,2013-02-10 01:12:00,
2013-02-09 19:21:00,43.0,34.0,29.96,SE,140,10.0,-999.0,70,0.05,,,-99.99,,2013-02-10 01:21:00,
2013-02-09 19:32:00,43.0,34.0,29.96,SE,140,10.0,-999.0,70,0.05,,,-99.99,,2013-02-10 01:32:00,
2013-02-09 20:52:00,41.0,36.0,29.92,SE,140,12.0,-999.0,80,0.01,,,-99.99,,2013-02-10 02:52:00,
2013-02-09 21:02:00,41.0,36.0,29.92,SE,140,12.0,-999.0,80,0.01,,,-99.99,,2013-02-10 03:02:00,
2013-02-09 21:11:00,41.0,36.0,29.92,SE,140,12.0,-999.0,80,0.01,,,-99.99,,2013-02-10 03:11:00,
2013-02-09 21:21:00,41.0,36.0,29.92,SE,140,12.0,-999.0,80,0.01,,,-99.99,,2013-02-10 03:21:00,
2013-02-09 21:32:00,41.0,36.0,29.92,SE,140,12.0,-999.0,80,0.01,,,-99.99,,2013-02-10 03:32:00,
2013-02-09 23:52:00,41.0,37.0,29.86,SE,140,16.0,21.0,86,0.03,,,-99.99,,2013-02-10 05:52:00,